South Lake Tahoe, CA

5:52 PM PDT on July 27, 2017 (GMT -0700)
Lake Tahoe

Weather History for KTVL - December, 2012

Change the Weather History Date:

Monday, December 3, 2012

  Actual Average Record
Temperature  
Mean Temperature 41 °F 31 °F  
Max Temperature 50 °F 45 °F 59 °F (2007)
Min Temperature 32 °F 18 °F 2 °F (2004)
Degree Days  
Heating Degree Days 24 34  
Month to date heating degree days 72 100  
Since 1 July heating degree days 1830 2193  
Cooling Degree Days 0 0  
Month to date cooling degree days 0 0  
Year to date cooling degree days 30 31  
Moisture  
Dew Point 30 °F    
Average Humidity 57    
Maximum Humidity 85    
Minimum Humidity 28    
Precipitation  
Precipitation T in - 2.05 in (1950)
Month to date precipitation 2.08  
Year to date precipitation 18.21  
Sea Level Pressure  
Sea Level Pressure 30.12 in    
Wind  
Wind Speed 6 mph (SSW)    
Max Wind Speed 20 mph    
Max Gust Speed 25 mph    
Visibility 10 miles    
Events Rain    
T = Trace of Precipitation, MM = Missing Value Source: NWS Daily Summary

Daily Weather History Graph

Daily Weather History Graph

Search for Another Location

Airport or City:

Trip Planner

Search our weather history database for the weather conditions in past years. The results will help you decide how hot, cold, wet, or windy it might be!

Date:

Astronomy

Dec. 03, 2012 Rise Set
Actual Time 7:02 AM PST 4:37 PM PST
Civil Twilight 6:32 AM PST 5:07 PM PST
Nautical Twilight 5:59 AM PST 5:40 PM PST
Astronomical Twilight 5:27 AM PST 6:12 PM PST
Moon 9:28 PM PST (12/3) 10:29 AM PST (12/3)
Length of Visible Light 10h 35m
Length of Day
9h 35m
Waning Gibbous, 77% of the Moon is Illuminated
Dec 3
Waning Gibbous
Dec 6
Last Quarter
Dec 13
New
Dec 19
First Quarter
Dec 28
Full

Hourly Weather History & Observations

Time (PST) Temp. Windchill Dew Point Humidity Pressure Visibility Wind Dir Wind Speed Gust Speed Precip Events Conditions
12:07 AM 35.6 °F - 28.4 °F 75% 30.10 in 10.0 mi Calm Calm - N/A   Overcast
12:53 AM 33.1 °F - 28.0 °F 82% 30.05 in 10.0 mi Calm Calm - N/A   Partly Cloudy
1:53 AM 32.0 °F - 28.9 °F 88% 30.05 in 10.0 mi Calm Calm - N/A   Clear
2:53 AM 37.9 °F 35.5 °F 30.0 °F 73% 30.05 in 10.0 mi Variable 3.5 mph - N/A   Mostly Cloudy
3:53 AM 39.0 °F 34.8 °F 30.0 °F 70% 30.08 in 10.0 mi Variable 5.8 mph - N/A   Scattered Clouds
5:53 AM 37.0 °F 32.4 °F 30.0 °F 76% 30.11 in 10.0 mi SSW 5.8 mph - N/A   Clear
7:53 AM 39.9 °F 33.9 °F 28.9 °F 65% 30.12 in 10.0 mi SSW 9.2 mph - N/A   Clear
8:53 AM 43.0 °F 37.7 °F 28.0 °F 56% 30.12 in 10.0 mi South 9.2 mph - N/A   Clear
9:53 AM 44.1 °F 37.7 °F 30.9 °F 60% 30.15 in 10.0 mi South 12.7 mph - N/A   Clear
10:53 AM 46.9 °F - 33.1 °F 59% 30.16 in 10.0 mi South 17.3 mph 21.9 mph N/A   Clear
11:53 AM 46.9 °F - 32.0 °F 56% 30.13 in 10.0 mi South 13.8 mph 21.9 mph N/A   Clear
12:53 PM 48.9 °F - 32.0 °F 52% 30.13 in 10.0 mi South 15.0 mph 19.6 mph N/A   Clear
1:53 PM 50.0 °F - 32.0 °F 50% 30.11 in 10.0 mi SSW 13.8 mph 24.2 mph N/A   Clear
2:53 PM 50.0 °F - 30.9 °F 48% 30.09 in 10.0 mi SSW 12.7 mph 20.7 mph N/A   Clear
3:53 PM 48.9 °F - 33.1 °F 54% 30.11 in 10.0 mi SSW 9.2 mph - N/A   Overcast
4:53 PM 46.0 °F 41.4 °F 35.1 °F 66% 30.13 in 10.0 mi SSW 9.2 mph 17.3 mph N/A   Overcast
5:53 PM 43.0 °F 38.2 °F 34.0 °F 71% 30.16 in 10.0 mi SSW 8.1 mph - N/A   Overcast
6:53 PM 43.0 °F 38.8 °F 30.9 °F 62% 30.16 in 10.0 mi SSW 6.9 mph - N/A   Scattered Clouds
7:53 PM 44.1 °F 41.5 °F 25.0 °F 47% 30.16 in 10.0 mi Variable 4.6 mph - N/A   Clear
8:53 PM 43.0 °F 41.3 °F 19.0 °F 38% 30.17 in 10.0 mi WSW 3.5 mph - N/A   Clear
10:53 PM 41.0 °F 35.2 °F 33.1 °F 73% 30.19 in 10.0 mi South 9.2 mph - 0.00 in Rain Light Rain
11:53 PM 39.0 °F 36.8 °F 33.1 °F 79% 30.15 in 10.0 mi SSW 3.5 mph - 0.00 in   Mostly Cloudy